| time (UTC) | temp C | wind direction | speed KPH | gust KPH | rain 1hr cm | rain 24hr cm | rain mn cm | humidity % | barometer mb |
| 20260504000316 | 14 | 286 | 8.0 | 25.7 | 0.03 | 0.18 | 0.03 | 67 | 1005.9 |
| 20260503235819 | 14 | 267 | 6.4 | 25.7 | 0.03 | 0.18 | 0.03 | 68 | 1006.0 |
| 20260503234810 | 14 | 267 | 8.0 | 24.1 | 0.03 | 0.18 | 0.03 | 68 | 1006.1 |
| 20260503234529 | 14 | 251 | 8.0 | 25.7 | 0.03 | 0.18 | 0.03 | 68 | 1006.1 |
| 20260503233810 | 14 | 260 | 9.7 | 25.7 | 0.03 | 0.18 | 0.03 | 68 | 1005.9 |
| 20260503233308 | 14 | 294 | 9.7 | 25.7 | 0.03 | 0.18 | 0.03 | 68 | 1005.9 |
| 20260503232810 | 14 | 289 | 11.3 | 25.7 | 0.00 | 0.15 | 0.00 | 68 | 1006.2 |
| 20260503232308 | 15 | 289 | 9.7 | 24.1 | 0.00 | 0.15 | 0.00 | 68 | 1006.2 |
| 20260503232034 | 15 | 220 | 9.7 | 27.4 | 0.00 | 0.15 | 0.00 | 68 | 1006.1 |
| 20260503231307 | 15 | 204 | 12.9 | 27.4 | 0.00 | 0.15 | 0.00 | 69 | 1006.2 |
| 20260503230810 | 15 | 228 | 12.9 | 29.0 | 0.00 | 0.15 | 0.00 | 69 | 1006.3 |
| 20260503230304 | 15 | 213 | 9.7 | 29.0 | 0.00 | 0.15 | 0.00 | 69 | 1006.1 |
| 20260503225800 | 15 | 292 | 4.8 | 22.5 | 0.00 | 0.15 | 0.00 | 69 | 1006.0 |
| 20260503225257 | 15 | 215 | 1.6 | 4.8 | 0.00 | 0.15 | 0.00 | 69 | 1006.0 |
| 20260503224800 | 15 | 202 | 1.6 | 4.8 | 0.00 | 0.15 | 0.00 | 69 | 1005.9 |
| 20260503224258 | 15 | 207 | 1.6 | 4.8 | 0.00 | 0.15 | 0.00 | 69 | 1005.8 |
| 20260503223801 | 15 | 204 | 1.6 | 4.8 | 0.00 | 0.15 | 0.00 | 69 | 1005.7 |
| 20260503223524 | 15 | 197 | 0.0 | 4.8 | 0.00 | 0.15 | 0.00 | 69 | 1005.7 |
| 20260503222800 | 15 | 197 | 1.6 | 3.2 | 0.00 | 0.15 | 0.00 | 69 | 1005.5 |
| 20260503221801 | 15 | 197 | 1.6 | 4.8 | 0.00 | 0.15 | 0.00 | 69 | 1005.7 |
| 20260503221258 | 15 | 197 | 1.6 | 4.8 | 0.00 | 0.15 | 0.00 | 69 | 1005.7 |
| 20260503220801 | 15 | 196 | 1.6 | 4.8 | 0.00 | 0.15 | 0.00 | 69 | 1005.8 |
| 20260503215801 | 15 | 197 | 3.2 | 4.8 | 0.00 | 0.15 | 0.15 | 69 | 1005.7 |
| 20260503215258 | 15 | 197 | 1.6 | 4.8 | 0.00 | 0.15 | 0.15 | 69 | 1005.7 |
| 20260503214801 | 15 | 196 | 1.6 | 3.2 | 0.00 | 0.15 | 0.15 | 69 | 1005.7 |
| 20260503214257 | 15 | 196 | 1.6 | 4.8 | 0.00 | 0.15 | 0.15 | 69 | 1005.7 |
| 20260503213800 | 15 | 196 | 3.2 | 4.8 | 0.00 | 0.15 | 0.15 | 69 | 1005.8 |
| 20260503213256 | 15 | 196 | 3.2 | 4.8 | 0.00 | 0.15 | 0.15 | 69 | 1005.7 |
| 20260503213033 | 15 | 190 | 3.2 | 4.8 | 0.00 | 0.15 | 0.15 | 69 | 1005.7 |
| 20260503212254 | 15 | 186 | 3.2 | 4.8 | 0.00 | 0.15 | 0.15 | 69 | 1005.7 |
| 20260503211758 | 15 | 141 | 1.6 | 4.8 | 0.00 | 0.15 | 0.15 | 69 | 1005.7 |
| 20260503211255 | 15 | 139 | 0.0 | 0.0 | 0.00 | 0.15 | 0.15 | 69 | 1005.7 |
| 20260503210521 | 16 | 139 | 0.0 | 0.0 | 0.00 | 0.15 | 0.15 | 69 | 1005.6 |
| 20260503210027 | 16 | 139 | 0.0 | 0.0 | 0.00 | 0.15 | 0.15 | 69 | 1005.8 |
| 20260503205255 | 16 | 139 | 0.0 | 3.2 | 0.00 | 0.15 | 0.15 | 69 | 1005.8 |
| 20260503204758 | 16 | 139 | 0.0 | 3.2 | 0.00 | 0.15 | 0.15 | 69 | 1005.8 |
| 20260503204255 | 16 | 139 | 1.6 | 4.8 | 0.00 | 0.15 | 0.15 | 69 | 1005.8 |
| 20260503204033 | 16 | 139 | 1.6 | 4.8 | 0.00 | 0.15 | 0.15 | 69 | 1005.8 |
| 20260503203255 | 16 | 138 | 1.6 | 3.2 | 0.00 | 0.15 | 0.15 | 69 | 1005.8 |
| 20260503202757 | 16 | 138 | 1.6 | 3.2 | 0.03 | 0.15 | 0.15 | 69 | 1005.8 |
| 20260503202514 | 16 | 138 | 3.2 | 6.4 | 0.03 | 0.15 | 0.15 | 69 | 1005.8 |
| 20260503202030 | 16 | 138 | 3.2 | 6.4 | 0.03 | 0.15 | 0.15 | 70 | 1005.8 |
| 20260503201255 | 16 | 73 | 1.6 | 4.8 | 0.03 | 0.15 | 0.15 | 71 | 1005.7 |
| 20260503200757 | 16 | 73 | 1.6 | 4.8 | 0.03 | 0.15 | 0.15 | 71 | 1005.7 |
| 20260503200033 | 16 | 71 | 0.0 | 3.2 | 0.05 | 0.15 | 0.15 | 71 | 1005.5 |
| 20260503195255 | 16 | 71 | 1.6 | 4.8 | 0.08 | 0.18 | 0.15 | 71 | 1005.4 |
| 20260503194758 | 16 | 71 | 1.6 | 4.8 | 0.10 | 0.18 | 0.15 | 71 | 1005.4 |
| 20260503194255 | 16 | 71 | 1.6 | 3.2 | 0.10 | 0.18 | 0.15 | 71 | 1005.5 |
| 20260503193758 | 16 | 71 | 1.6 | 4.8 | 0.10 | 0.18 | 0.15 | 71 | 1005.2 |
| 20260503193254 | 16 | 69 | 1.6 | 4.8 | 0.10 | 0.18 | 0.15 | 71 | 1005.3 |
| 20260503192757 | 16 | 69 | 3.2 | 6.4 | 0.08 | 0.15 | 0.15 | 71 | 1005.2 |
| 20260503192255 | 16 | 69 | 3.2 | 6.4 | 0.08 | 0.15 | 0.15 | 71 | 1005.2 |
| 20260503191757 | 17 | 68 | 1.6 | 11.3 | 0.08 | 0.15 | 0.15 | 71 | 1005.2 |
| 20260503191237 | 17 | 291 | 1.6 | 11.3 | 0.08 | 0.15 | 0.15 | 71 | 1005.0 |
| 20260503191002 | 17 | 295 | 1.6 | 12.9 | 0.08 | 0.15 | 0.15 | 71 | 1004.9 |
| 20260503190237 | 17 | 328 | 1.6 | 12.9 | 0.05 | 0.15 | 0.13 | 71 | 1004.9 |
| 20260503190004 | 17 | 288 | 0.0 | 9.7 | 0.05 | 0.13 | 0.10 | 71 | 1004.8 |
| 20260503185453 | 17 | 288 | 1.6 | 11.3 | 0.05 | 0.10 | 0.08 | 71 | 1004.8 |
| 20260503184728 | 17 | 292 | 3.2 | 11.3 | 0.03 | 0.08 | 0.05 | 70 | 1004.7 |
| 20260503184228 | 17 | 265 | 1.6 | 4.8 | 0.03 | 0.08 | 0.05 | 71 | 1004.6 |
| 20260503183728 | 17 | 266 | 1.6 | 4.8 | 0.03 | 0.08 | 0.05 | 70 | 1010.9 |
| 20260503183228 | 17 | 263 | 0.0 | 3.2 | 0.03 | 0.08 | 0.05 | 70 | 1004.4 |
| 20260503182729 | 17 | 263 | 0.0 | 3.2 | 0.03 | 0.08 | 0.05 | 70 | 1004.4 |
| 20260503182226 | 17 | 263 | 0.0 | 3.2 | 0.03 | 0.08 | 0.05 | 70 | 1004.4 |
| 20260503181712 | 17 | 262 | 0.0 | 1.6 | 0.03 | 0.08 | 0.05 | 70 | 1010.7 |
| 20260503181212 | 18 | 261 | 0.0 | 4.8 | 0.03 | 0.08 | 0.05 | 70 | 1004.3 |
| 20260503180712 | 18 | 261 | 0.0 | 4.8 | 0.03 | 0.08 | 0.05 | 70 | 1004.2 |
| 20260503180433 | 18 | 261 | 1.6 | 6.4 | 0.03 | 0.08 | 0.05 | 69 | 1004.2 |
| 20260503175929 | 18 | 261 | 3.2 | 6.4 | 0.00 | 0.05 | 0.05 | 69 | 1004.2 |
| 20260503175212 | 18 | 267 | 3.2 | 6.4 | 0.00 | 0.05 | 0.05 | 69 | 1004.2 |
| 20260503174712 | 18 | 277 | 1.6 | 6.4 | 0.00 | 0.05 | 0.05 | 68 | 1004.2 |
| 20260503174430 | 18 | 5 | 0.0 | 0.0 | 0.00 | 0.05 | 0.05 | 68 | 1004.0 |
| 20260503173656 | 18 | 5 | 0.0 | 3.2 | 0.00 | 0.05 | 0.05 | 68 | 1003.9 |
| 20260503173156 | 18 | 5 | 0.0 | 3.2 | 0.00 | 0.05 | 0.05 | 68 | 1004.1 |
| 20260503172656 | 18 | 5 | 1.6 | 6.4 | 0.00 | 0.05 | 0.05 | 68 | 1004.1 |
| 20260503172157 | 18 | 5 | 1.6 | 6.4 | 0.00 | 0.05 | 0.05 | 67 | 1004.1 |
| 20260503171656 | 18 | 5 | 1.6 | 6.4 | 0.00 | 0.05 | 0.05 | 68 | 1004.1 |
| 20260503171156 | 18 | 9 | 1.6 | 6.4 | 0.00 | 0.05 | 0.05 | 68 | 1004.1 |
| 20260503170657 | 19 | 13 | 1.6 | 6.4 | 0.00 | 0.08 | 0.05 | 67 | 1004.1 |
| 20260503170157 | 19 | 13 | 1.6 | 6.4 | 0.00 | 0.08 | 0.05 | 67 | 1004.1 |
| 20260503160146 | 19 | 96 | 3.2 | 9.7 | 0.00 | 0.15 | 0.05 | 66 | 1004.1 |
| 20260503150637 | 17 | 34 | 1.6 | 4.8 | 0.00 | 0.15 | 0.05 | 67 | 1005.1 |
| 20260503150406 | 17 | 24 | 0.0 | 4.8 | 0.00 | 0.15 | 0.05 | 66 | 1005.3 |
| 20260503140111 | 16 | 151 | 4.8 | 9.7 | 0.05 | 0.15 | 0.05 | 70 | 1006.2 |
| 20260503131049 | 17 | 314 | 14.5 | 35.4 | 0.00 | 0.10 | 0.00 | 69 | 1006.5 |
| 20260503130549 | 18 | 290 | 12.9 | 27.4 | 0.00 | 0.10 | 0.00 | 69 | 1006.5 |
| 20260503130105 | 20 | 302 | 12.9 | 27.4 | 0.00 | 0.10 | 0.00 | 68 | 1006.4 |
| 20260503110539 | 21 | 103 | 12.9 | 22.5 | 0.00 | 0.10 | 0.00 | 71 | 1006.2 |
| 20260503090236 | 18 | 17 | 1.6 | 6.4 | 0.00 | 0.10 | 0.00 | 67 | 1006.7 |
| 20260503081017 | 16 | 327 | 0.0 | 3.2 | 0.00 | 0.10 | 0.00 | 69 | 1006.8 |
| 20260503080531 | 16 | 327 | 0.0 | 3.2 | 0.00 | 0.10 | 0.00 | 69 | 1006.8 |
| 20260503072514 | 15 | 213 | 0.0 | 3.2 | 0.00 | 0.10 | 0.00 | 70 | 1007.2 |
| 20260503072014 | 14 | 213 | 0.0 | 3.2 | 0.00 | 0.10 | 0.00 | 70 | 1007.1 |
| 20260503071733 | 14 | 213 | 0.0 | 0.0 | 0.00 | 0.10 | 0.00 | 70 | 1007.2 |
| 20260503070512 | 13 | 213 | 0.0 | 0.0 | 0.00 | 0.10 | 0.00 | 70 | 1007.1 |
| 20260503060235 | 12 | 213 | 1.6 | 3.2 | 0.00 | 0.10 | 0.00 | 73 | 1006.7 |
| 20260503055010 | 12 | 213 | 1.6 | 3.2 | 0.00 | 0.10 | 0.00 | 73 | 1006.7 |
| 20260503054733 | 12 | 213 | 1.6 | 4.8 | 0.00 | 0.10 | 0.00 | 73 | 1006.7 |
| 20260503054010 | 12 | 213 | 1.6 | 4.8 | 0.00 | 0.10 | 0.00 | 73 | 1006.7 |
| 20260503053508 | 12 | 214 | 1.6 | 6.4 | 0.00 | 0.10 | 0.00 | 73 | 1006.7 |
| 20260503053010 | 12 | 214 | 3.2 | 6.4 | 0.00 | 0.10 | 0.00 | 73 | 1006.8 |
| 20260503052518 | 12 | 217 | 3.2 | 4.8 | 0.00 | 0.10 | 0.00 | 73 | 1006.8 |
| 20260503052234 | 12 | 216 | 1.6 | 4.8 | 0.00 | 0.10 | 0.00 | 73 | 1006.8 |
| 20260503051508 | 12 | 215 | 0.0 | 1.6 | 0.00 | 0.10 | 0.00 | 73 | 1006.7 |
| 20260503051010 | 12 | 215 | 0.0 | 1.6 | 0.00 | 0.10 | 0.00 | 73 | 1006.7 |
| 20260503050508 | 12 | 215 | 0.0 | 4.8 | 0.00 | 0.10 | 0.00 | 73 | 1006.6 |
| 20260503050010 | 12 | 215 | 0.0 | 4.8 | 0.00 | 0.10 | 0.00 | 73 | 1006.5 |
| 20260503045507 | 12 | 234 | 0.0 | 1.6 | 0.00 | 0.10 | 0.00 | 73 | 1007.0 |
| 20260503045010 | 12 | 235 | 0.0 | 1.6 | 0.00 | 0.10 | 0.00 | 73 | 1006.5 |
| 20260503044507 | 12 | 218 | 1.6 | 3.2 | 0.00 | 0.10 | 0.00 | 73 | 1006.5 |
| 20260503044229 | 12 | 218 | 1.6 | 3.2 | 0.00 | 0.10 | 0.00 | 73 | 1006.6 |
| 20260503043010 | 12 | 218 | 1.6 | 3.2 | 0.00 | 0.10 | 0.00 | 73 | 1006.6 |
| 20260503042727 | 13 | 218 | 1.6 | 4.8 | 0.00 | 0.10 | 0.00 | 73 | 1006.6 |
| 20260503042232 | 13 | 218 | 1.6 | 4.8 | 0.00 | 0.10 | 0.00 | 73 | 1006.8 |
| 20260503041519 | 13 | 218 | 1.6 | 4.8 | 0.00 | 0.10 | 0.00 | 73 | 1006.7 |
| 20260503041009 | 13 | 218 | 0.0 | 4.8 | 0.00 | 0.10 | 0.00 | 73 | 1006.8 |
| 20260503040507 | 13 | 282 | 0.0 | 0.0 | 0.00 | 0.10 | 0.00 | 73 | 1006.8 |
| 20260503040009 | 13 | 282 | 0.0 | 0.0 | 0.00 | 0.10 | 0.00 | 73 | 1006.7 |
| 20260503035507 | 13 | 282 | 0.0 | 4.8 | 0.00 | 0.10 | 0.00 | 73 | 1006.7 |
| 20260503035010 | 13 | 282 | 1.6 | 4.8 | 0.00 | 0.10 | 0.00 | 73 | 1006.7 |
| 20260503034507 | 13 | 282 | 1.6 | 4.8 | 0.00 | 0.10 | 0.00 | 73 | 1006.8 |
| 20260503034010 | 13 | 283 | 1.6 | 4.8 | 0.00 | 0.10 | 0.00 | 73 | 1006.7 |
| 20260503033506 | 13 | 283 | 1.6 | 8.0 | 0.00 | 0.10 | 0.00 | 73 | 1006.6 |
| 20260503033009 | 13 | 283 | 1.6 | 8.0 | 0.00 | 0.10 | 0.00 | 73 | 1006.6 |
| 20260503032506 | 13 | 300 | 0.0 | 3.2 | 0.00 | 0.10 | 0.00 | 73 | 1006.6 |
| 20260503032009 | 13 | 300 | 1.6 | 4.8 | 0.00 | 0.10 | 0.00 | 73 | 1006.6 |
| 20260503031506 | 13 | 300 | 1.6 | 4.8 | 0.00 | 0.10 | 0.00 | 73 | 1006.6 |
| 20260503031009 | 13 | 301 | 0.0 | 3.2 | 0.00 | 0.10 | 0.00 | 73 | 1006.7 |
| 20260503030520 | 13 | 301 | 0.0 | 3.2 | 0.00 | 0.10 | 0.00 | 73 | 1006.7 |
| 20260503030234 | 13 | 301 | 0.0 | 3.2 | 0.00 | 0.10 | 0.00 | 73 | 1006.8 |
| 20260503025726 | 13 | 301 | 0.0 | 3.2 | 0.00 | 0.10 | 0.00 | 73 | 1006.8 |
| 20260503025009 | 13 | 301 | 1.6 | 4.8 | 0.00 | 0.10 | 0.00 | 73 | 1006.9 |
| 20260503024506 | 13 | 301 | 0.0 | 4.8 | 0.00 | 0.10 | 0.00 | 73 | 1006.8 |
| 20260503024010 | 13 | 150 | 0.0 | 0.0 | 0.00 | 0.10 | 0.00 | 73 | 1007.0 |
| 20260503023506 | 13 | 150 | 0.0 | 0.0 | 0.00 | 0.10 | 0.00 | 73 | 1006.9 |
| 20260503023010 | 14 | 150 | 0.0 | 0.0 | 0.00 | 0.10 | 0.00 | 73 | 1006.8 |
| 20260503022507 | 14 | 150 | 0.0 | 1.6 | 0.00 | 0.10 | 0.00 | 73 | 1006.9 |
| 20260503022010 | 14 | 150 | 0.0 | 1.6 | 0.00 | 0.10 | 0.00 | 73 | 1007.0 |
| 20260503021506 | 14 | 150 | 0.0 | 1.6 | 0.00 | 0.10 | 0.00 | 73 | 1007.2 |
| 20260503021010 | 14 | 150 | 0.0 | 1.6 | 0.00 | 0.10 | 0.00 | 73 | 1007.1 |
| 20260503020507 | 14 | 150 | 1.6 | 4.8 | 0.00 | 0.10 | 0.00 | 73 | 1007.2 |
| 20260503020010 | 14 | 150 | 1.6 | 4.8 | 0.00 | 0.10 | 0.00 | 73 | 1007.1 |
| 20260503015506 | 14 | 150 | 1.6 | 3.2 | 0.00 | 0.10 | 0.00 | 73 | 1007.1 |
| 20260503015010 | 15 | 150 | 1.6 | 3.2 | 0.00 | 0.10 | 0.00 | 73 | 1007.2 |
| 20260503014506 | 15 | 150 | 0.0 | 3.2 | 0.00 | 0.10 | 0.00 | 73 | 1007.2 |
| 20260503014237 | 15 | 150 | 0.0 | 3.2 | 0.00 | 0.10 | 0.00 | 73 | 1007.2 |
| 20260503013507 | 15 | 150 | 1.6 | 8.0 | 0.00 | 0.10 | 0.00 | 73 | 1007.1 |
| 20260503013009 | 15 | 150 | 1.6 | 8.0 | 0.00 | 0.10 | 0.00 | 72 | 1007.2 |
| 20260503012725 | 15 | 152 | 1.6 | 6.4 | 0.00 | 0.10 | 0.00 | 72 | 1007.2 |
| 20260503012010 | 15 | 188 | 1.6 | 6.4 | 0.00 | 0.10 | 0.00 | 72 | 1007.3 |
| 20260503011507 | 15 | 189 | 1.6 | 6.4 | 0.00 | 0.10 | 0.00 | 72 | 1007.3 |
| 20260503011009 | 15 | 299 | 1.6 | 4.8 | 0.00 | 0.10 | 0.00 | 72 | 1007.3 |
| 20260503010506 | 15 | 299 | 0.0 | 4.8 | 0.00 | 0.10 | 0.00 | 72 | 1007.5 |
| 20260503010011 | 15 | 299 | 0.0 | 0.0 | 0.00 | 0.10 | 0.00 | 72 | 1007.4 |
| 20260503005507 | 16 | 298 | 0.0 | 0.0 | 0.00 | 0.10 | 0.00 | 72 | 1007.4 |
| 20260503005010 | 16 | 298 | 0.0 | 3.2 | 0.00 | 0.10 | 0.00 | 72 | 1007.4 |
| 20260503004507 | 16 | 299 | 1.6 | 3.2 | 0.00 | 0.10 | 0.00 | 72 | 1007.5 |
| 20260503004010 | 16 | 298 | 1.6 | 3.2 | 0.00 | 0.10 | 0.00 | 72 | 1007.5 |
| 20260503003507 | 16 | 299 | 3.2 | 6.4 | 0.00 | 0.10 | 0.00 | 72 | 1007.6 |
| 20260503003009 | 16 | 299 | 3.2 | 6.4 | 0.00 | 0.10 | 0.00 | 72 | 1007.6 |
| 20260503002507 | 16 | 300 | 4.8 | 11.3 | 0.00 | 0.10 | 0.00 | 72 | 1007.6 |
| 20260503002009 | 16 | 298 | 4.8 | 11.3 | 0.00 | 0.10 | 0.00 | 72 | 1007.7 |
| 20260503001506 | 16 | 304 | 4.8 | 12.9 | 0.00 | 0.10 | 0.00 | 72 | 1007.7 |
| 20260503001009 | 16 | 305 | 6.4 | 12.9 | 0.00 | 0.10 | 0.00 | 71 | 1007.7 |